Location: Bas-Clignon
(44.2000°N, 6.6333°E)
Time: 20:43:31
(UTC+00:00)

Cosmos 1190 Rocket - Pass Details

Date: 03 February 2023
Orbit: 756 x 778 km, 74.1° (Epoch: 22 March)

Event Time Altitude Azimuth Distance (km) Brightness Sun altitude
Rises 17:32:21 0° 200° (SSW) 3,246 7.8 -8.8°
Reaches altitude 10° 17:34:43 10° 201° (SSW) 2,322 7.0 -9.2°
Maximum altitude 17:40:01 85° 291° (WNW) 786 4.1 -10.1°
Drops below altitude 10° 17:45:19 10° 20° (NNE) 2,329 6.2 -11.0°
Sets 17:47:42 0° 21° (NNE) 3,258 6.9 -11.5°
